West Plains, MO

3:16 AM CDT on April 20, 2018 (GMT -0500)
West Plains Municipal

Weather History for KUNO - January, 2013

Change the Weather History Date:

Sunday, January 13, 2013

  Actual Average Record
Temperature  
Mean Temperature 25 °F 34 °F  
Max Temperature 32 °F 44 °F 71 °F (1995)
Min Temperature 18 °F 23 °F -3 °F (1963)
Degree Days  
Heating Degree Days 40 31  
Month to date heating degree days 369 403  
Since 1 July heating degree days 2037 2148  
Cooling Degree Days 0 0  
Month to date cooling degree days 0 0  
Year to date cooling degree days 0 0  
Moisture  
Dew Point 22 °F    
Average Humidity 81    
Maximum Humidity 92    
Minimum Humidity 69    
Precipitation  
Precipitation T in 0.06 in 2.16 in (1971)
Month to date precipitation 1.92 0.83  
Year to date precipitation 1.92 0.83  
Sea Level Pressure  
Sea Level Pressure 30.11 in    
Wind  
Wind Speed 11 mph (NNW)    
Max Wind Speed 20 mph    
Max Gust Speed 25 mph    
Visibility 10 miles    
Events      
T = Trace of Precipitation, MM = Missing Value Source: NWS Daily Summary

Daily Weather History Graph

Daily Weather History Graph

Search for Another Location

Airport or City:

Astronomy

Jan. 13, 2013 Rise Set
Actual Time 7:20 AM CST 5:13 PM CST
Civil Twilight 6:51 AM CST 5:41 PM CST
Nautical Twilight 6:19 AM CST 6:13 PM CST
Astronomical Twilight 5:48 AM CST 6:44 PM CST
Moon 8:23 AM CST (1/13) 7:47 PM CST (1/13)
Length of Visible Light 10h 49m
Length of Day
9h 53m
Waxing Crescent, 5% of the Moon is Illuminated
Jan 13
Waxing Crescent
Jan 18
First Quarter
Jan 26
Full
Feb 3
Last Quarter
Feb 10
New

Hourly Weather History & Observations

Time (CST) Temp. Windchill Dew Point Humidity Pressure Visibility Wind Dir Wind Speed Gust Speed Precip Events Conditions
12:35 AM 32.0 °F 23.0 °F 28.4 °F 87% 29.87 in 10.0 mi North 11.5 mph 17.3 mph N/A   Overcast
12:53 AM 32.0 °F 23.6 °F 28.9 °F 88% 29.90 in 10.0 mi North 10.4 mph - N/A   Overcast
1:53 AM 30.9 °F 21.7 °F 28.0 °F 89% 29.92 in 10.0 mi North 11.5 mph - N/A   Overcast
2:53 AM 30.9 °F 20.7 °F 28.0 °F 89% 29.95 in 10.0 mi North 13.8 mph 17.3 mph N/A   Overcast
3:53 AM 30.9 °F 22.2 °F 28.0 °F 89% 29.97 in 10.0 mi NNW 10.4 mph 18.4 mph N/A   Overcast
4:34 AM 30.2 °F 21.3 °F 26.6 °F 86% 29.96 in 10.0 mi North 10.4 mph - N/A   Overcast
4:53 AM 28.9 °F 18.2 °F 27.0 °F 92% 29.98 in 9.0 mi NNW 13.8 mph - N/A   Overcast
5:53 AM 28.0 °F 18.1 °F 25.0 °F 88% 30.04 in 7.0 mi NNW 11.5 mph - N/A   Overcast
6:53 AM 27.0 °F 17.3 °F 25.0 °F 92% 30.08 in 7.0 mi NNW 10.4 mph 18.4 mph N/A   Overcast
7:53 AM 26.1 °F 14.5 °F 23.0 °F 88% 30.04 in 7.0 mi North 13.8 mph 19.6 mph N/A   Overcast
8:35 AM 24.8 °F 13.4 °F 21.2 °F 86% 30.03 in 8.0 mi NNW 12.7 mph - N/A   Overcast
8:53 AM 26.1 °F 16.2 °F 23.0 °F 88% 30.07 in 9.0 mi NNW 10.4 mph - N/A   Overcast
9:53 AM 25.0 °F 15.5 °F 21.0 °F 85% 30.15 in 10.0 mi NNW 9.2 mph 18.4 mph 0.00 in   Overcast
10:08 AM 24.8 °F 12.9 °F 21.2 °F 86% 30.10 in 10.0 mi NW 13.8 mph - N/A   Overcast
10:53 AM 25.0 °F 15.5 °F 21.0 °F 85% 30.10 in 10.0 mi NNW 9.2 mph - 0.00 in   Overcast
11:30 AM 24.8 °F 11.9 °F 21.2 °F 86% 30.06 in 10.0 mi NNW 16.1 mph - 0.00 in   Overcast
11:51 AM 24.8 °F 12.9 °F 21.2 °F 86% 30.05 in 10.0 mi North 13.8 mph 21.9 mph 0.00 in   Overcast
11:53 AM 25.0 °F 12.2 °F 21.0 °F 85% 30.09 in 10.0 mi NNW 16.1 mph 21.9 mph 0.00 in   Overcast
12:41 PM 26.6 °F 14.3 °F 21.2 °F 80% 30.07 in 10.0 mi NW 16.1 mph 20.7 mph N/A   Overcast
12:53 PM 26.1 °F 14.5 °F 21.0 °F 81% 30.11 in 10.0 mi NW 13.8 mph - N/A   Overcast
1:03 PM 26.6 °F 16.2 °F 21.2 °F 80% 30.07 in 10.0 mi NW 11.5 mph - N/A   Overcast
1:53 PM 27.0 °F 13.9 °F 21.0 °F 78% 30.14 in 10.0 mi NW 18.4 mph 24.2 mph N/A   Mostly Cloudy
2:26 PM 28.4 °F 18.0 °F 23.0 °F 80% 30.12 in 10.0 mi WNW 12.7 mph 23.0 mph N/A   Overcast
2:35 PM 28.4 °F 17.5 °F 21.2 °F 74% 30.13 in 10.0 mi NNW 13.8 mph 23.0 mph N/A   Mostly Cloudy
2:53 PM 30.0 °F 19.1 °F 21.9 °F 72% 30.17 in 10.0 mi NW 15.0 mph 21.9 mph N/A   Mostly Cloudy
3:37 PM 28.4 °F 17.5 °F 21.2 °F 74% 30.17 in 10.0 mi NNW 13.8 mph - N/A   Scattered Clouds
3:53 PM 27.0 °F 15.6 °F 19.0 °F 72% 30.22 in 10.0 mi NW 13.8 mph 23.0 mph N/A   Clear
4:53 PM 25.0 °F 16.3 °F 19.0 °F 78% 30.23 in 10.0 mi NNW 8.1 mph - N/A   Clear
5:53 PM 23.0 °F 15.8 °F 17.1 °F 78% 30.25 in 10.0 mi NNW 5.8 mph - N/A   Clear
6:53 PM 21.9 °F 13.4 °F 17.1 °F 82% 30.27 in 10.0 mi NNW 6.9 mph - N/A   Partly Cloudy
7:53 PM 21.0 °F 12.4 °F 16.0 °F 81% 30.28 in 10.0 mi North 6.9 mph - N/A   Clear
8:53 PM 19.9 °F 10.1 °F 16.0 °F 85% 30.29 in 10.0 mi North 8.1 mph - N/A   Clear
9:53 PM 19.9 °F 10.1 °F 15.1 °F 81% 30.32 in 10.0 mi North 8.1 mph - N/A   Clear
10:53 PM 19.0 °F 12.3 °F 14.0 °F 81% 30.34 in 10.0 mi North 4.6 mph - N/A   Clear
11:53 PM 18.0 °F 11.1 °F 12.0 °F 78% 30.37 in 10.0 mi North 4.6 mph - N/A   Clear